30/04/2024 04:15:00,0.632
30/04/2024 04:30:00,0.621
30/04/2024 04:45:00,0.61
30/04/2024 05:00:00,0.601
30/04/2024 05:15:00,0.592
30/04/2024 05:30:00,0.582
30/04/2024 05:45:00,0.573
30/04/2024 06:00:00,0.565
30/04/2024 06:15:00,0.557
30/04/2024 06:30:00,0.549
30/04/2024 06:45:00,0.542
30/04/2024 07:00:00,0.535
30/04/2024 07:15:00,0.528
30/04/2024 07:30:00,0.522
30/04/2024 07:45:00,0.516
30/04/2024 08:00:00,0.51
30/04/2024 08:15:00,0.504
30/04/2024 08:30:00,0.5
30/04/2024 08:45:00,0.493
30/04/2024 09:00:00,0.487
30/04/2024 09:15:00,0.483
30/04/2024 09:30:00,0.478
30/04/2024 09:45:00,0.475
30/04/2024 10:00:00,0.47
30/04/2024 10:15:00,0.466
30/04/2024 10:30:00,0.463
30/04/2024 10:45:00,0.46
30/04/2024 11:00:00,0.458
30/04/2024 11:15:00,0.455
30/04/2024 11:30:00,0.453
30/04/2024 11:45:00,0.452
30/04/2024 12:00:00,0.451
30/04/2024 12:15:00,0.45
30/04/2024 12:30:00,0.449
30/04/2024 12:45:00,0.448
30/04/2024 13:00:00,0.448
30/04/2024 13:15:00,0.448
30/04/2024 13:30:00,0.449
30/04/2024 13:45:00,0.448
30/04/2024 14:00:00,0.449
30/04/2024 14:15:00,0.45
30/04/2024 14:30:00,0.447
30/04/2024 14:45:00,0.447
30/04/2024 15:00:00,0.446
30/04/2024 15:15:00,0.445
30/04/2024 15:30:00,0.443
30/04/2024 15:45:00,0.443
30/04/2024 16:00:00,0.439
30/04/2024 16:15:00,0.437
30/04/2024 16:30:00,0.435
30/04/2024 16:45:00,0.433
30/04/2024 17:00:00,0.43
30/04/2024 17:15:00,0.428
30/04/2024 17:30:00,0.425
30/04/2024 17:45:00,0.422
30/04/2024 18:00:00,0.419
30/04/2024 18:15:00,0.417
30/04/2024 18:30:00,0.413
30/04/2024 18:45:00,0.411
30/04/2024 19:00:00,0.408
30/04/2024 19:15:00,0.404
30/04/2024 19:30:00,0.402
30/04/2024 19:45:00,0.398
30/04/2024 20:00:00,0.395
30/04/2024 20:15:00,0.392
30/04/2024 20:30:00,0.389
30/04/2024 20:45:00,0.386
30/04/2024 21:00:00,0.383
30/04/2024 21:15:00,0.38
30/04/2024 21:30:00,0.378
30/04/2024 21:45:00,0.374
30/04/2024 22:00:00,0.373
30/04/2024 22:15:00,0.371
30/04/2024 22:30:00,0.368
30/04/2024 22:45:00,0.365
30/04/2024 23:00:00,0.363
30/04/2024 23:15:00,0.361
30/04/2024 23:30:00,0.359
30/04/2024 23:45:00,0.357
01/05/2024 00:00:00,0.355
01/05/2024 00:15:00,0.353
01/05/2024 00:30:00,0.35
01/05/2024 00:45:00,0.348
01/05/2024 01:00:00,0.345
01/05/2024 01:15:00,0.344
01/05/2024 01:30:00,0.343
01/05/2024 01:45:00,0.343
01/05/2024 02:00:00,0.341
01/05/2024 02:15:00,0.338
01/05/2024 02:30:00,0.335
01/05/2024 02:45:00,0.334
01/05/2024 03:00:00,0.334
01/05/2024 03:15:00,0.335
01/05/2024 03:30:00,0.334
01/05/2024 03:45:00,0.331
01/05/2024 04:00:00,0.329
01/05/2024 04:15:00,0.327
01/05/2024 04:30:00,0.324
01/05/2024 04:45:00,0.324
01/05/2024 05:00:00,0.326
01/05/2024 05:15:00,0.325
01/05/2024 05:30:00,0.322
01/05/2024 05:45:00,0.32
01/05/2024 06:00:00,0.319
01/05/2024 06:15:00,0.32
01/05/2024 06:30:00,0.321
01/05/2024 06:45:00,0.319
01/05/2024 07:00:00,0.316
01/05/2024 07:15:00,0.314
01/05/2024 07:30:00,0.312
01/05/2024 07:45:00,0.313
01/05/2024 08:00:00,0.313
01/05/2024 08:15:00,0.312
01/05/2024 08:30:00,0.31
01/05/2024 08:45:00,0.308
01/05/2024 09:00:00,0.309
01/05/2024 09:15:00,0.311
01/05/2024 09:30:00,0.31
01/05/2024 09:45:00,0.308
01/05/2024 10:00:00,0.306
01/05/2024 10:15:00,0.304
01/05/2024 10:30:00,0.303
01/05/2024 10:45:00,0.303
01/05/2024 11:00:00,0.304
01/05/2024 11:15:00,0.305
01/05/2024 11:30:00,0.303
01/05/2024 11:45:00,0.302
01/05/2024 12:00:00,0.301
01/05/2024 12:15:00,0.3
01/05/2024 12:30:00,0.301
01/05/2024 12:45:00,0.301
01/05/2024 13:00:00,0.299
01/05/2024 13:15:00,0.298
01/05/2024 13:30:00,0.296
01/05/2024 13:45:00,0.296
01/05/2024 14:00:00,0.296
01/05/2024 14:15:00,0.296
01/05/2024 14:30:00,0.295
01/05/2024 14:45:00,0.295
01/05/2024 15:00:00,0.294
01/05/2024 15:15:00,0.294
01/05/2024 15:30:00,0.293
01/05/2024 15:45:00,0.292
01/05/2024 16:00:00,0.291
01/05/2024 16:15:00,0.291
01/05/2024 16:30:00,0.29
01/05/2024 16:45:00,0.29
01/05/2024 17:00:00,0.288
01/05/2024 17:15:00,0.286
01/05/2024 17:30:00,0.284
01/05/2024 17:45:00,0.286
01/05/2024 18:00:00,0.288
01/05/2024 18:15:00,0.288
01/05/2024 18:30:00,0.287
01/05/2024 18:45:00,0.284
01/05/2024 19:00:00,0.282
01/05/2024 19:15:00,0.28
01/05/2024 19:30:00,0.28
01/05/2024 19:45:00,0.281
01/05/2024 20:00:00,0.282
01/05/2024 20:15:00,0.283
01/05/2024 20:30:00,0.283
01/05/2024 20:45:00,0.282
01/05/2024 21:00:00,0.282
01/05/2024 21:15:00,0.281
01/05/2024 21:30:00,0.281
01/05/2024 21:45:00,0.28
01/05/2024 22:00:00,0.28
01/05/2024 22:15:00,0.281
01/05/2024 22:30:00,0.281
01/05/2024 22:45:00,0.28
01/05/2024 23:00:00,0.28
01/05/2024 23:15:00,0.279
01/05/2024 23:30:00,0.279
01/05/2024 23:45:00,0.279
02/05/2024 00:00:00,0.278
02/05/2024 00:15:00,0.279
02/05/2024 00:30:00,0.279
02/05/2024 00:45:00,0.278
02/05/2024 01:00:00,0.277
02/05/2024 01:15:00,0.277
02/05/2024 01:30:00,0.277
02/05/2024 01:45:00,0.277
02/05/2024 02:00:00,0.276
02/05/2024 02:15:00,0.276
02/05/2024 02:30:00,0.276
02/05/2024 02:45:00,0.276
02/05/2024 03:00:00,0.275
02/05/2024 03:15:00,0.275
02/05/2024 03:30:00,0.275
02/05/2024 03:45:00,0.274
02/05/2024 04:00:00,0.274
02/05/2024 04:15:00,0.273
02/05/2024 04:30:00,0.273
02/05/2024 04:45:00,0.273
02/05/2024 05:00:00,0.272
02/05/2024 05:15:00,0.273
02/05/2024 05:30:00,0.272
02/05/2024 05:45:00,0.271
02/05/2024 06:00:00,0.271
02/05/2024 06:15:00,0.27
02/05/2024 06:30:00,0.27
02/05/2024 06:45:00,0.27
02/05/2024 07:00:00,0.269
02/05/2024 07:15:00,0.269
02/05/2024 07:30:00,0.269
02/05/2024 07:45:00,0.268
02/05/2024 08:00:00,0.268
02/05/2024 08:15:00,0.268
02/05/2024 08:30:00,0.268
02/05/2024 08:45:00,0.267
02/05/2024 09:00:00,0.267
02/05/2024 09:15:00,0.266
02/05/2024 09:30:00,0.266
02/05/2024 09:45:00,0.266
02/05/2024 10:00:00,0.266
02/05/2024 10:15:00,0.266
02/05/2024 10:30:00,0.266
02/05/2024 10:45:00,0.266
02/05/2024 11:00:00,0.265
02/05/2024 11:15:00,0.264
02/05/2024 11:30:00,0.264
02/05/2024 11:45:00,0.263
02/05/2024 12:00:00,0.264
02/05/2024 12:15:00,0.264
02/05/2024 12:30:00,0.263
02/05/2024 12:45:00,0.263
02/05/2024 13:00:00,0.262
02/05/2024 13:15:00,0.261
02/05/2024 13:30:00,0.262
02/05/2024 13:45:00,0.261
02/05/2024 14:00:00,0.26
02/05/2024 14:15:00,0.259
02/05/2024 14:30:00,0.259
02/05/2024 14:45:00,0.258
02/05/2024 15:00:00,0.259
02/05/2024 15:15:00,0.256
02/05/2024 15:30:00,0.257
02/05/2024 15:45:00,0.256
02/05/2024 16:00:00,0.256
02/05/2024 16:15:00,0.254
02/05/2024 16:30:00,0.254
02/05/2024 16:45:00,0.253
02/05/2024 17:00:00,0.251
02/05/2024 17:15:00,0.25
02/05/2024 17:30:00,0.249
02/05/2024 17:45:00,0.249
02/05/2024 18:00:00,0.25
02/05/2024 18:15:00,0.248
02/05/2024 18:30:00,0.247
02/05/2024 18:45:00,0.246
02/05/2024 19:00:00,0.245
02/05/2024 19:15:00,0.245
02/05/2024 19:30:00,0.243
02/05/2024 19:45:00,0.243
02/05/2024 20:00:00,0.241
02/05/2024 20:15:00,0.24
02/05/2024 20:30:00,0.24
02/05/2024 20:45:00,0.239
02/05/2024 21:00:00,0.238
02/05/2024 21:15:00,0.238
02/05/2024 21:30:00,0.236
02/05/2024 21:45:00,0.236
02/05/2024 22:00:00,0.235
02/05/2024 22:15:00,0.235
02/05/2024 22:30:00,0.235
02/05/2024 22:45:00,0.235
02/05/2024 23:00:00,0.234
02/05/2024 23:15:00,0.234
02/05/2024 23:30:00,0.234
02/05/2024 23:45:00,0.234
03/05/2024 00:00:00,0.233
03/05/2024 00:15:00,0.233
03/05/2024 00:30:00,0.232
03/05/2024 00:45:00,0.233
03/05/2024 01:00:00,0.233
03/05/2024 01:15:00,0.232
03/05/2024 01:30:00,0.231
03/05/2024 01:45:00,0.231
03/05/2024 02:00:00,0.231
03/05/2024 02:15:00,0.231
03/05/2024 02:30:00,0.23
03/05/2024 02:45:00,0.23
03/05/2024 03:00:00,0.23
03/05/2024 03:15:00,0.229
03/05/2024 03:30:00,0.228
03/05/2024 03:45:00,0.229
03/05/2024 04:00:00,0.23
03/05/2024 04:15:00,0.23
03/05/2024 04:30:00,0.23
03/05/2024 04:45:00,0.229
03/05/2024 05:00:00,0.229
03/05/2024 05:15:00,0.229
03/05/2024 05:30:00,0.23
03/05/2024 05:45:00,0.23
03/05/2024 06:00:00,0.23
03/05/2024 06:15:00,0.231
03/05/2024 06:30:00,0.231
03/05/2024 06:45:00,0.231
03/05/2024 07:00:00,0.231
03/05/2024 07:15:00,0.23
03/05/2024 07:30:00,0.231
03/05/2024 07:45:00,0.23
03/05/2024 08:00:00,0.23
03/05/2024 08:15:00,0.229
03/05/2024 08:30:00,0.229
03/05/2024 08:45:00,0.229
03/05/2024 09:00:00,0.229
03/05/2024 09:15:00,0.229
03/05/2024 09:30:00,0.23
03/05/2024 09:45:00,0.229
03/05/2024 10:00:00,0.229
03/05/2024 10:15:00,0.229
03/05/2024 10:30:00,0.23
03/05/2024 10:45:00,0.23
03/05/2024 11:00:00,0.23
03/05/2024 11:15:00,0.229
03/05/2024 11:30:00,0.23
03/05/2024 11:45:00,0.23
03/05/2024 12:00:00,0.229
03/05/2024 12:15:00,0.23
03/05/2024 12:30:00,0.229
03/05/2024 12:45:00,0.228
03/05/2024 13:00:00,0.228
03/05/2024 13:15:00,0.227
03/05/2024 13:30:00,0.228
03/05/2024 13:45:00,0.226
03/05/2024 14:00:00,0.226
03/05/2024 14:15:00,0.226
03/05/2024 14:30:00,0.226
03/05/2024 14:45:00,0.225
03/05/2024 15:00:00,0.225
03/05/2024 15:15:00,0.224
03/05/2024 15:30:00,0.224
03/05/2024 15:45:00,0.224
03/05/2024 16:00:00,0.223
03/05/2024 16:15:00,0.223
03/05/2024 16:30:00,0.222
03/05/2024 16:45:00,0.223
03/05/2024 17:00:00,0.222
03/05/2024 17:15:00,0.222
03/05/2024 17:30:00,0.222
03/05/2024 17:45:00,0.219
03/05/2024 18:00:00,0.219
03/05/2024 18:15:00,0.217
03/05/2024 18:30:00,0.217
03/05/2024 18:45:00,0.217
03/05/2024 19:00:00,0.218
03/05/2024 19:15:00,0.219
03/05/2024 19:30:00,0.218
03/05/2024 19:45:00,0.219
03/05/2024 20:00:00,0.22
03/05/2024 20:15:00,0.221
03/05/2024 20:30:00,0.221
03/05/2024 20:45:00,0.22
03/05/2024 21:00:00,0.219
03/05/2024 21:15:00,0.218
03/05/2024 21:30:00,0.218
03/05/2024 21:45:00,0.218
03/05/2024 22:00:00,0.217
03/05/2024 22:15:00,0.217
03/05/2024 22:30:00,0.216
03/05/2024 22:45:00,0.216
03/05/2024 23:00:00,0.216
03/05/2024 23:15:00,0.217
03/05/2024 23:30:00,0.217
03/05/2024 23:45:00,0.217
04/05/2024 00:00:00,0.217
04/05/2024 00:15:00,0.217
04/05/2024 00:30:00,0.216
04/05/2024 00:45:00,0.216
04/05/2024 01:00:00,0.217
04/05/2024 01:15:00,0.217
04/05/2024 01:30:00,0.216
04/05/2024 01:45:00,0.216
04/05/2024 02:00:00,0.216
04/05/2024 02:15:00,0.216
04/05/2024 02:30:00,0.216
04/05/2024 02:45:00,0.217
04/05/2024 03:00:00,0.217
04/05/2024 03:15:00,0.217
04/05/2024 03:30:00,0.217
04/05/2024 03:45:00,0.217
04/05/2024 04:00:00,0.217
04/05/2024 04:15:00,0.218
04/05/2024 04:30:00,0.218
04/05/2024 04:45:00,0.218
04/05/2024 05:00:00,0.218
04/05/2024 05:15:00,0.218
04/05/2024 05:30:00,0.218
04/05/2024 05:45:00,0.218
04/05/2024 06:00:00,0.219
04/05/2024 06:15:00,0.219
04/05/2024 06:30:00,0.219
04/05/2024 06:45:00,0.219
04/05/2024 07:00:00,0.219
04/05/2024 07:15:00,0.219
04/05/2024 07:30:00,0.219
04/05/2024 07:45:00,0.22
04/05/2024 08:00:00,0.22
04/05/2024 08:15:00,0.22
04/05/2024 08:30:00,0.22
04/05/2024 08:45:00,0.22
04/05/2024 09:00:00,0.22
04/05/2024 09:15:00,0.22
04/05/2024 09:30:00,0.22
04/05/2024 09:45:00,0.22
04/05/2024 10:00:00,0.22
04/05/2024 10:15:00,0.22
04/05/2024 10:30:00,0.22
04/05/2024 10:45:00,0.22
04/05/2024 11:00:00,0.22
04/05/2024 11:15:00,0.22
04/05/2024 11:30:00,0.22
04/05/2024 11:45:00,0.22
04/05/2024 12:00:00,0.221
04/05/2024 12:15:00,0.221
04/05/2024 12:30:00,0.221
04/05/2024 12:45:00,0.22
04/05/2024 13:00:00,0.22
04/05/2024 13:15:00,0.22
04/05/2024 13:30:00,0.22
04/05/2024 13:45:00,0.221
04/05/2024 14:00:00,0.22
04/05/2024 14:15:00,0.221
04/05/2024 14:30:00,0.22
04/05/2024 14:45:00,0.221
04/05/2024 15:00:00,0.221
04/05/2024 15:15:00,0.221
04/05/2024 15:30:00,0.221
04/05/2024 15:45:00,0.221
04/05/2024 16:00:00,0.221
04/05/2024 16:15:00,0.221
04/05/2024 16:30:00,0.221
04/05/2024 16:45:00,0.221
04/05/2024 17:00:00,0.221
04/05/2024 17:15:00,0.22
04/05/2024 17:30:00,0.22
04/05/2024 17:45:00,0.221
04/05/2024 18:00:00,0.22
04/05/2024 18:15:00,0.221
04/05/2024 18:30:00,0.221
04/05/2024 18:45:00,0.22
04/05/2024 19:00:00,0.22
04/05/2024 19:15:00,0.221
04/05/2024 19:30:00,0.221
04/05/2024 19:45:00,0.221
04/05/2024 20:00:00,0.221
04/05/2024 20:15:00,0.221
04/05/2024 20:30:00,0.221
04/05/2024 20:45:00,0.221
04/05/2024 21:00:00,0.222
04/05/2024 21:15:00,0.221
04/05/2024 21:30:00,0.221
04/05/2024 21:45:00,0.221
04/05/2024 22:00:00,0.221
04/05/2024 22:15:00,0.221
04/05/2024 22:30:00,0.221
04/05/2024 22:45:00,0.221
04/05/2024 23:00:00,0.22
04/05/2024 23:15:00,0.22
04/05/2024 23:30:00,0.22
04/05/2024 23:45:00,0.22
05/05/2024 00:00:00,0.22
05/05/2024 00:15:00,0.22
05/05/2024 00:30:00,0.219
05/05/2024 00:45:00,0.219
05/05/2024 01:00:00,0.219
05/05/2024 01:15:00,0.219
05/05/2024 01:30:00,0.219
05/05/2024 01:45:00,0.219
05/05/2024 02:00:00,0.219
05/05/2024 02:15:00,0.218
05/05/2024 02:30:00,0.218
05/05/2024 02:45:00,0.218
